{"data":{"norad_id":64839,"intl_designator":"2025-151Z","name":"KUIPER-00094","alt_names":[],"object_type":"PAYLOAD","status":"ACTIVE","operator":null,"country":"US","launch_date":"2025-07-16","launch_site_code":"AFETR","launch_vehicle":null,"mission":null,"orbit_class":"UNKNOWN","rcs_meters":null,"size_class":null,"mass_kg":null,"dimensions":null,"purposes":[],"wikipedia_slug":null,"has_3d_model":false,"image_url":null,"decayed_at":null,"tle_current":{"epoch":"2026-05-25T04:00:03.998880Z","epoch_age_seconds":56764,"freshness":"FRESH","line1":"1 64839U 25151Z   26145.16671295  .00034599  00000+0  28871-2 0  9996","line2":"2 64839  51.8913 270.8352 0003779 188.8532 162.2639 14.98250544  4585","mean_motion":14.98250544,"eccentricity":0.0003779,"inclination_deg":51.8913,"raan_deg":270.8352,"arg_perigee_deg":188.8532,"mean_anomaly_deg":162.2639,"bstar":0.0028871,"rev_number":458,"period_min":96.112095921922,"perigee_km":569.67504217708,"apogee_km":574.92818368073,"semimajor_km":6950.4386129289,"source":"CELESTRAK","updated_at":"2026-05-25T13:38:04.828388Z"}}}